Terminal Aerodrome Forecast
Issued by NWS Rapid City, SD

Home | Current Version | Previous Version | Text Only | Print | Product List | Glossary Off
Versions: 1 2 3 4 5 6 7 8 9 10 11 12 13 14 15 16 17

000
FTUS43 KUNR 231129
TAFRAP
TAF
KRAP 231129Z 2312/2412 VRB05KT P6SM BKN100
      TEMPO 2313/2315 4SM -SN BKN040
     FM231900 05009KT P6SM BKN010
     FM240200 02010KT 4SM BR OVC008
     FM240800 34012KT 2SM -SN OVC005=

USA.gov is the U.S. government's official web portal to all federal, state and local government web resources and services.